Погода в Шокине

Россия / Смоленская область     54°58′31″N   32°25′33″E
темп.,
°C
ветер,
м/с
пор.,
м/с
влажн.,
%
обл.,
%
осадки,
мм/ч
давл.,
гПа
погр.,
м
15 апреля, чт
чт1500:00+9с4797100 0.3 1017248
03:00+8ссв4995100 0.3 1016352
06:00+8ссв4996100 0.6 1016376
09:00+8св4896100 1.9 1016344
12:00+10св3894100 0.6 1015563
15:00+10св51190100 3.7 1015727
18:00+11всв4989100 1.6 1014475
21:00+10св51094100 4.3 1015364
16 апреля, пт
пт1600:00+10всв51289100 0.8 1014816
03:00+9всв61293100 1.4 1015744
06:00+9всв51195100 0.1 1015622
09:00+10всв5109080 0.1 1016693
12:00+13в597596 0.8 10171262
15:00+13всв5977100 3.3 10171050
18:00+10в4993100 11.8 1017579
21:00+10всв4993100 23.8 1018461
17 апреля, сб
сб1700:00+9св3994100 1.1 1019268
03:00+9всв499499 2.2 1019284
06:00+8в4993100 0.2 1021495
09:00+9всв4889100 0.3 1022683
12:00+11всв5781100 0.1 1022948
15:00+11св4983100 0.3 1022895
18:00+11св51277100 0.0 1021684
21:00+10св513786 0.0 1022554
18 апреля, вс
вс1800:00+8св5138085 0.0 1022508
03:00+6св51378100 0.0 1023411
06:00+4св412800 0.0 1023378
09:00+7всв510710 0.0 1023538
12:00+11всв57595 0.0 1023981
15:00+13всв575586 0.0 10231297
18:00+13всв475735 0.0 10231227
21:00+8св397719 0.0 1024204
19 апреля, пн
пн1900:00+6св38798 0.0 1025164
03:00+4св38835 0.0 1026172
06:00+3всв27885 0.0 1026143
09:00+8всв46705 0.0 1026420
12:00+12всв57515 0.0 10261753
15:00+13всв5649100 0.0 10252079
18:00+11всв476227 0.1 10251195
21:00+7всв398156 0.2 1026253